User: anonymous
Location: Vancouver
(49.2500°N, 123.1330°W)
Time: 13:30:04
(UTC-07:00)
Language:

Transit 2A Rocket - Orbit

View from above orbital plane
View from above orbital plane
View from above satellite
View from above satellite

Ground track
Ground track

The orbit data is extracted from the following two-line orbital elements,

1 00047U 60007C   14208.37516401  .00000218  00000-0  75511-4 0  2634
2 00047 066.6672 147.2111 0222737 076.6401 285.9429 14.41167298824871
Epoch (UTC): 27 July 2014 09:00:14
Eccentricity: 0.0222737
inclination: 66.6672°
perigee height: 596 km
apogee height: 913 km
right ascension of ascending node: 147.2111°
argument of perigee: 76.6401°
revolutions per day: 14.41167298
mean anomaly at epoch: 285.9429°
orbit number at epoch: 82487

The dashed part of the orbit path shows where the satellite is in the earth's shadow,  

DLR